Simultaneous Nadir Overpasses (SNOs) Predictions

Prediction of SNOs near US between AQUA and NPP Satellite Orbit:

Table of predicted SNOs near US for the next 10.0 days since TLE Epoch: 6/29/2018
Index Date (AQUA) Time (AQUA) AQUA Lat,Lon Date (NPP) Time (NPP) NPP Lat,Lon Distance(km) Time Diff (sec)
1 07/01/2018 07:19:07 49.90, -75.99 07/01/2018 07:20:01 50.33, -78.09 157.30 54
2 07/01/2018 08:58:00 49.90,-100.71 07/01/2018 09:01:29 50.44,-103.41 201.76 209
3 07/03/2018 18:17:16 49.96, -80.16 07/03/2018 18:10:17 49.67, -81.65 111.94 419
4 07/03/2018 19:56:09 49.95,-104.87 07/03/2018 19:51:45 49.56,-106.98 157.18 264
5 07/03/2018 21:31:20 36.71,-124.99 07/03/2018 21:29:25 36.25,-127.49 230.22 115
6 07/06/2018 09:24:51 20.02,-114.23 07/06/2018 09:16:31 20.04,-114.63 41.80 500
7 07/09/2018 06:30:58 45.19, -65.46 07/09/2018 06:30:37 45.54, -67.39 155.63 21
8 07/09/2018 08:08:32 49.89, -88.36 07/09/2018 08:10:43 50.38, -90.74 178.47 131
9 07/09/2018 09:47:25 49.89,-113.08 07/09/2018 09:52:11 50.49,-116.06 222.89 286




NCC Satellite Simultaneous Nadir Overpasses (SNOs) Prediction Service
